Regional Weather Roundup
Issued by NWS

Home | Current Version | Previous Version | Graphics & Text | Print | Product List | Glossary On
Versions: 1 2 3 4 5 6 7 8 9 10 11 12 13 14 15 16 17 18 19 20 21 22 23 24 25 26 27 28 29 30 31 32 33 34 35 36 37 38 39 40 41 42 43 44 45 46 47 48 49 50
000
ASUS45 KTFX 281119
RWRMT
MONTANA HOURLY WEATHER ROUNDUP
NATIONAL WEATHER SERVICE GREAT FALLS MT
419 AM MST SUN DEC 28 2014

NOTE: "FAIR" INDICATES FEW OR NO CLOUDS BELOW 12000 FEET WITH NO
SIGNIFICANT WEATHER AND/OR OBSTRUCTIONS TO VISIBILITY.

* THESE STATIONS ARE NOT UNDER NWS QUALITY CONTROL. THEY DO NOT
   REPORT WEATHER SUCH AS PRECIPITATION OR FOG.

MTZ001>007-043-281200-
WEST OF THE DIVIDE
CITY           SKY/WX    TMP DP  RH WIND       PRES   REMARKS
KALISPELL      LGT SNOW  28  28 100 CALM      29.85R VSB 1
MISSOULA       LGT SNOW  28  28 100 NE3       29.88R
BUTTE          CLOUDY    19  16  88 N5        29.81S WCI  12
MULLAN PASS    SNOW      23  18  81 VRB3      29.77S VSB 1/2
* HAMILTON APT CLOUDY    30  25  82 S13       29.87S WCI  20
* LIBBY APT    CLOUDY    27  25  92 CALM      29.89R VSB 2 1/2
* LINCOLN      N/A       25  24  96 SW2        N/A
* LOOKOUT PASS N/A       25  24  96 N4         N/A
* POLSON       N/A       28  28 100 N1         N/A
* RONAN APT    CLOUDY    30  30 100 SW8        N/A   WCI  22
* SEELEY LAKE  N/A       25  24  96 NE2        N/A
* THOMP F APT  MOCLDY    13  10  88 SE4G15     N/A
* YAAK HILL    N/A       30  28  92 N/A        N/A
$$

MTZ008-052>055-281200-
SOUTHWEST MONTANA
CITY           SKY/WX    TMP DP  RH WIND       PRES   REMARKS
BOZEMAN        CLOUDY    21  18  88 NW5       29.84F WCI  14
DILLON         PTCLDY    19  10  68 S7        29.84F WCI  10
* W YELLOWSTON CLOUDY    14  10  84 SW4G11     N/A
* THREE FORKS  CLOUDY    28  27  96 S14G21     N/A   WCI  17
* BOULDER HILL N/A       21  14  74 SW11       N/A   WCI   9
* MONIDA PASS  N/A       11   9  92 SE19       N/A   WCI  -7
* RAYNOLDS PAS N/A       14  -5  42 SE25       N/A   WCI  -5
* WHITEHALL    N/A       27  19  72 W14G21     N/A   WCI  16
* WISE RIVER   N/A       20  17  88 W6         N/A   WCI  12
$$

MTZ009>010-012-014-046-048-049-054-281200-
EAST SLOPES AND CENTRAL MONTANA
CITY           SKY/WX    TMP DP  RH WIND       PRES   REMARKS
CUT BANK       LGT SNOW  27  23  85 N9        29.84R WCI  18
GREAT FALLS    CLOUDY    27  23  85 SW8       29.79R WCI  19
HELENA         CLOUDY    23  19  85 W5        29.83S WCI  16
MALMSTROM AFB  LGT SNOW  27  25  92 NE3       29.83R
* CONRAD       MOCLDY    25  23  92 SW6        N/A   WCI  18
* DEARBORN     N/A       29  20  69 S3G8       N/A
* EAST GLACIER N/A       22  19  88 NE2G7      N/A
* MONARCH      N/A       23  16  74 S8G17      N/A   WCI  14
* PENDROY      N/A       22  22 100 N8         N/A   WCI  13
* ROGERS PASS  N/A       23  19  85 E6G12      N/A   WCI  16
* SWEET GRASS  N/A       24  23  96 N/A        N/A
* WHITE SULPH  N/A       24  18  78 S14G20     N/A   WCI  12
$$

MTZ011-013-016-021-035-040-045-047-050-051-281200-
NORTH CENTRAL MONTANA
CITY           SKY/WX    TMP DP  RH WIND       PRES   REMARKS
HAVRE          CLOUDY    21  18  88 NE10      29.89R WCI  10
LEWISTOWN      LGT SNOW  27  23  85 CALM      29.78F VSB 3/4
* N BAR RANCH  FOG       21  19  92 CALM      29.78F VSB 1 3/4
* CHINOOK      CLOUDY    19  16  88 CALM      29.92R
* CHESTER      N/A       21  18  88 NE6G12     N/A   WCI  13
* DENTON       N/A       26  25  96 E2         N/A
* GEYSER       N/A       26  25  96 NE2        N/A
* JUDITH GAP   N/A       24  18  78 SW7        N/A   WCI  16
* LOMA         N/A       25  25 100 NE6        N/A   WCI  18
$$

MTZ017>020-022>027-061-062-281200-
NORTHEAST MONTANA
CITY           SKY/WX    TMP DP  RH WIND       PRES   REMARKS
GLASGOW        CLOUDY    19  16  88 E21       29.94R WCI   3
GLENDIVE       CLOUDY    18  14  84 NE7       29.93F WCI   9
JORDAN         CLOUDY    23  19  85 E5        29.88S WCI  16
SIDNEY         MOCLDY    19  14  81 N10       30.00F WCI   8
WOLF POINT     CLOUDY    18  12  77 E15       29.99S WCI   4
* BEAVER HILL  N/A       18  14  84 SE2        N/A
* CIRCLE       N/A       19  17  92 NE3        N/A
* LINDSAY DVD  N/A       18  17  96 E2         N/A
* NAVAJO       N/A       11   8  88 NE8        N/A   WCI  -1
* PLENTYWOOD A PTCLDY    10   7  88 NE14      30.01S WCI  -6
* POPLAR APT   PTCLDY    16  12  84 NE13      29.99F WCI   2
* SACO         N/A       18  16  92 NE12G17    N/A   WCI   5
$$

MTZ028>042-056>058-281200-
SOUTHCENTRAL AND SOUTHEAST MONTANA
CITY           SKY/WX    TMP DP  RH WIND       PRES   REMARKS
BAKER          CLOUDY    16  10  77 CALM      29.91F
BILLINGS       CLOUDY    21  14  74 S6        29.82F WCI  13
LIVINGSTON     HAZE      27  16  63 SW36G51   29.76F VSB 3    WCI  10
MILES CITY     MOCLDY    21  16  81 SE6       29.90F WCI  13
* BIG TIMBER A CLOUDY    27  18  69 W14       29.79F WCI  16
* FORSYTH APT  CLOUDY    23  18  81 SE3       29.89F
* LAUREL APT   MOCLDY    25   9  50 N/A        N/A
* ROUNDUP APT  MOCLDY    23  18  81 S5         N/A   WCI  16
* ALZADA       N/A       16   7  67 E2         N/A
* HYSHAM       N/A       23   9  55 W4G9       N/A
* LAME DEER    N/A       22   8  55 S3G10      N/A
* REED POINT   N/A       18  14  84 SE2        N/A
* ROSCOE HILL  N/A       26  -1  31 S19G35     N/A   WCI  12
$$

REGIONAL REPORTS...DAKOTAS
CITY           SKY/WX    TMP DP  RH WIND       PRES   REMARKS
WILLISTON      CLOUDY    14  10  84 NE8       30.04R WCI   3
DICKINSON      CLOUDY    19  16  88 E7        29.94S WCI  10
BEACH          CLOUDY    18  18 100 SE7       29.93F WCI   9
CROSBY         CLOUDY     5   0  80 E13       30.09R WCI -12
WATFORD CITY   CLOUDY    14  10  84 E15       29.99S WCI  -1
BISMARCK       LGT SNOW  18  14  84 E10       30.07R VSB 2 1/2 WCI   6
GRAND FORKS    CLEAR     -6  -9  87 N9        30.22R WCI -22
FARGO          CLOUDY     9   1  70 N18       30.15R WCI  -9
BUFFALO SD     PTCLDY    19  10  68 CALM      29.84F
RAPID CITY     PTCLDY     7   1  76 CALM      29.94F
$$

REGIONAL REPORTS...WYOMING/IDAHO/WASHINGTON
CITY           SKY/WX    TMP DP  RH WIND       PRES   REMARKS
GILLETTE       PTCLDY    14   5  67 S9        29.84F WCI   2
SHERIDAN       CLOUDY     9   3  76 W3        29.85S
CODY           MOCLDY    27   9  46 W20G32    29.81F WCI  13
YELLOWSTONE LA CLOUDY    10   7  88 VRB3      29.86F
SALMON         MOCLDY    12   9  88 CALM      29.95F
MULLAN PASS    SNOW      23  18  81 VRB3      29.77S VSB 1/2
SAND POINT     LGT SNOW  32  32 100 N5        29.90S WCI  27
SPOKANE        LGT SNOW  30  28  92 SW10      29.92R WCI  21
$$

REGIONAL REPORTS...ALBERTA
CITY           SKY/WX    TMP DP  RH WIND       PRES   REMARKS
CALGARY        FOG       14  12  92 N15       30.01R VSB 1 1/2 WCI  -1
LETHBRIDGE     LGT SNOW  16  14  92 NW15      29.96R WCI   1
MEDICINE HAT   PTCLDY     9   7  91 N8        29.98R WCI  -3
EDMONTON       LGT SNOW   9   5  84 N7        30.18R WCI  -2
WATERTON GATE  N/A       19  16  88 NE7        N/A   WCI  10
CARDSTON       N/A       18  18 100 N12        N/A   WCI   5
MILK RIVER     N/A       18  16  92 N22        N/A   WCI   1
$$

REGIONAL REPORTS...SASKATCHEWAN
CITY           SKY/WX    TMP DP  RH WIND       PRES   REMARKS
SWIFT CURRENT  LGT SNOW   9   7  91 E12       29.98S WCI  -6
REGINA         PTCLDY    -8 -13  78 NE6       30.13S WCI -21
VAL MARIE      N/A       14  14 100 E8         N/A   WCI   3
ASSINIBOIA     N/A        9   3  76 E9         N/A   WCI  -4

$$



USA.gov is the U.S. government's official web portal to all federal, state and local government web resources and services.